map of TNF home
TNF - Airport
Location
City:  Toussus-Le-Noble, Īle-de-France, France
ICAO:LFPN
IATA:TNF

Details
Type:Airport (Aerodrome, Airfield)
Use:Public/Civil
Latitude:48°44'59"N (48.749756)
Longitude:2°06'40"E (2.111178)
Elevation:538 ft (164 m)
Variation:0.39°E (WMM2015 magnetic declination)
0.13° annual change
Runways:2
Longest:3609 × 98 ft (1100 × 30 m)

Time
Time Zone:UTC+1 (DST+2)
Local Time:

Weather
METAR:LFPN 090330Z AUTO 12002KT 0550 0450 R25R/0400D FG BKN005 01/01 Q1030

Related Locations
Nearby:
Farthest:CHT: 12082 mi / 19444 km
Waitangi [Tuuta], CIT, NZ

Find:

   beyond  
but within

Other Information
Maps:
NOTAMs:
Links:
Sources:

  
flag of France
flag of Īle-de-France
  

Sectional Chart

Flight Planning
at skyvector.com

Satellite Image

Google Maps Satellite view

 

Copyright © 2004-2016 Karl L. Swartz. All rights reserved.
The Great Circle Mapper name and logo are trademarks of the Great Circle Mapper.
All other trademarks mentioned herein belong to their respective owners.
Please see credits for attibutions and further copyright information.

  Follow gcmap on Facebook Follow gcmap on Twitter Follow gcmap on Google+ GCmap on LinkedIn

hCard Microformat

Geo Microformat